www.pogodaiklimat.ru

Погода и климат >> Архив погоды >> Сенегал >> Podor


ПОГОДА в Podor

  • Прогноз погоды в Podor
  • Монитор погоды в Podor
  • Климат города

АРХИВ ПОГОДЫ в Podor

Время (UTC), дата Ветер
(напр.,м/с)
 
Видим.   Явления Облачность Т
(С)
Тd
(С)
f
(%)
Тe
(С)
Тes
(С)
Комфортность P
(гПа)
Po
(гПа)
Тmin
(С)
Tmax
(С)
R
(мм)
R24
(мм)
S
(см)
09 11.08 штиль 0 10 км 1/0
[Ac trans]
+29.5 +23.4 70 +40 +48 очень
душно
1012.1 1011.3
12 11.08 В 1 10 км 4/1 400 м
[Sc Ac trans]
+33.5 +22.7 53 +43 +61 опасность
перегрева
1013.0 1012.2
15 11.08 В 1 10 км 6/4 400 м
[Cu med, cong Ac trans]
+37.5 +22.5 42 +46 +56 опасность
перегрева
1010.5 1009.7
18 11.08 ЮЗ 1 10 км 6/4 400 м
[Cu med, cong Ac trans]
+36.5 +22.1 43 +45 +46 опасность
перегрева
1009.6 1008.8 +39.0
21 11.08 ЮЗ 1 10 км зарница 4/3 900 м
[Cb calv Ci sp]
+33.2 +22.4 53 +42 +42 опасность
перегрева
1011.5 1010.7
00 12.08 ЮЗ 2 10 км 1/0
[Ac trans]
+31.0 +21.9 58 +39 +39 очень
душно
1012.5 1011.7
03 12.08 ЮЗ 2 10 км 6/0
[Cs]
+28.6 +23.1 72 +38 +38 очень
душно
1012.1 1011.3
06 12.08 ЮЗ 1 10 км зарница 6/1 900 м
[Cb calv Ac trans Ci sp]
+27.7 +23.1 76 +37 +37 очень
душно
1012.3 1011.5 +27.3
12 12.08 штиль 0 10 км {гроза, дождь} 8/0
[Ac As]
+27.0 +22.6 77 +36 +48 очень
душно
1014.3 1013.5 9
15 12.08 СВ 1 10 км 3/0
[Ci sp]
+32.2 +24.1 62 +44 +64 опасность
перегрева
1012.8 1012.0
18 12.08 З 1 10 км 4/0
[Ac cast Ci sp]
+34.2 +24.0 55 +46 +48 опасность
перегрева
1012.0 1011.2 +34.8 9
21 12.08 З 1 10 км ясно +30.6 +24.1 68 +42 +42 опасность
перегрева
1012.0 1011.2
00 13.08 З 1 10 км ясно +29.0 +23.9 74 +40 +40 очень
душно
1013.2 1012.4
03 13.08 штиль 0 10 км ясно +27.0 +24.1 84 +37 +37 очень
душно
1012.3 1011.5
06 13.08 З 1 10 км ясно +26.1 +24.5 91 +37 +37 очень
душно
1011.8 1011.0 +25.8 9
09 13.08 ЮЗ 1 10 км ясно +28.5 +24.3 78 +40 +48 очень
душно
1012.9 1012.1
12 13.08 штиль 0 10 км ясно +33.6 +24.8 60 +47 +75 опасность
перегрева
1012.4 1011.6
15 13.08 ЮЗ 1 10 км 1/1 400 м
[Cu med, cong]
+37.4 +24.6 48 +50 +68 опасность
перегрева
1010.7 1009.9
18 13.08 ЮЗ 1 10 км 3/3 400 м
[Cu med, cong]
+36.6 +23.6 47 +47 +49 опасность
перегрева
1009.9 1009.1 +38.5
00 14.08 ЮЗ 2 10 км зарница 1/1 900 м
[Cb calv]
+29.6 +24.6 75 +42 +42 опасность
перегрева
1013.0 1012.2
03 14.08 З 1 8000 м слабый ливневой дождь, в посл. час гроза 9/3 900 м
[Cb calv Ac As]
+25.6 +24.2 92 +35 +35 очень
душно
1011.8 1011.0
06 14.08 штиль 0 10 км {гроза, дождь} 8/0
[Ac As]
+26.5 +24.9 91 +38 +38 очень
душно
1012.4 1011.6 +24.2 4
09 14.08 В 1 10 км 9/0
[Ac As]
+27.9 +25.2 85 +40 +43 очень
душно
1014.3 1013.5
12 14.08 С 1 10 км 6/1 400 м
[Sc Ac trans]
+32.0 +25.0 67 +46 +60 опасность
перегрева
1013.1 1012.3
15 14.08 В 2 10 км 9/0
[Ac trans]
+34.0 +23.3 54 +45 +54 опасность
перегрева
1011.4 1010.6
18 14.08 З 1 10 км 6/0
[Ac cast Ci sp]
+35.0 +22.8 49 +45 +46 опасность
перегрева
1010.5 1009.7 +35.0
21 14.08 З 1 10 км 3/0
[Ac cast]
+32.0 +22.9 59 +42 +42 опасность
перегрева
1011.4 1010.6
00 15.08 ЮЗ 3 10 км ясно +29.2 +23.9 73 +40 +40 очень
душно
1013.1 1012.3
03 15.08 ЮЗ 2 10 км ясно +27.8 +24.5 82 +39 +39 очень
душно
1012.3 1011.5
06 15.08 ЮЗ 2 10 км ясно +27.0 +24.6 87 +38 +38 очень
душно
1012.4 1011.6 +26.5
09 15.08 ЮЗ 2 10 км 1/0
[Ci sp]
+29.5 +24.5 75 +42 +48 опасность
перегрева
1013.0 1012.2
12 15.08 З 3 10 км ясно +35.8 +23.4 49 +46 +63 опасность
перегрева
1011.9 1011.1
15 15.08 З 3 10 км 3/0
[Ac cast]
+40.0 +19.4 30 +44 +55 опасность
перегрева
1009.5 1008.7
18 15.08 З 3 10 км 5/0
[Ci sp]
+38.5 +18.7 32 +43 +44 опасность
перегрева
1007.6 1006.8 +40.5
21 15.08 З 2 10 км ясно +33.5 +20.2 46 +40 +40 очень
душно
1009.8 1009.0
00 16.08 З 2 10 км ясно +30.0 +22.8 65 +40 +40 очень
душно
1010.4 1009.6
03 16.08 ЮЗ 2 10 км ясно +28.5 +22.9 72 +38 +38 очень
душно
1009.0 1008.2
06 16.08 ЮЗ 2 10 км ясно +27.8 +23.0 75 +37 +37 очень
душно
1010.1 1009.3 +27.2
09 16.08 ЮЗ 2 10 км 8/8 330 м
[St]
+28.9 +23.6 73 +39 +41 очень
душно
1011.3 1010.5
12 16.08 Ю 1 10 км 4/0
[Ci sp]
+33.9 +24.2 57 +46 +68 опасность
перегрева
1011.7 1010.9
15 16.08 В 1 10 км 3/0
[Ci sp]
+38.5 +22.0 39 +47 +67 опасность
перегрева
1009.5 1008.7
18 16.08 В 1 10 км ясно +37.6 +22.5 42 +46 +49 опасность
перегрева
1008.5 1007.7 +38.3
21 16.08 В 1 10 км ясно +34.0 +23.3 54 +45 +45 опасность
перегрева
1010.2 1009.4
00 17.08 В 1 10 км ясно +32.2 +22.8 58 +42 +42 опасность
перегрева
1011.4 1010.6
03 17.08 Ю 1 10 км 3/0
[Ci sp]
+31.4 +22.9 61 +42 +42 опасность
перегрева
1011.5 1010.7
06 17.08 ЮЗ 1 10 км ясно +29.3 +25.4 80 +43 +43 опасность
перегрева
1012.5 1011.7 +29.0
09 17.08 ЮЗ 1 10 км 4/4 330 м
[St]
+31.4 +25.5 71 +46 +50 опасность
перегрева
1013.6 1012.8
12 17.08 ЮЗ 2 10 км 3/3 400 м
[Sc]
+35.5 +24.6 53 +48 +62 опасность
перегрева
1013.2 1012.4
15 17.08 З 1 10 км 3/3 400 м
[Cu med, cong]
+38.5 +22.9 41 +48 +62 опасность
перегрева
1010.8 1010.0
18 17.08 З 1 10 км 4/1 400 м
[Cu med, cong Ac trans]
+38.8 +22.8 40 +48 +50 опасность
перегрева
1009.5 1008.7 +39.6
21 17.08 ЮЗ 2 10 км 1/0
[Ac trans]
+34.3 +22.2 49 +43 +43 опасность
перегрева
1010.7 1009.9
00 18.08 ЮЗ 4 10 км ясно +31.0 +23.1 63 +41 +41 опасность
перегрева
1012.8 1012.0
03 18.08 ЮЗ 2 10 км ясно +29.5 +23.8 71 +40 +40 очень
душно
1011.0 1010.2
06 18.08 ЮЗ 3 10 км зарница 1/1 900 м
[Cb calv]
+28.5 +23.6 75 +39 +39 очень
душно
1011.0 1010.2 +28.2

 

Местоположение метеостанции Podor (Сенегал): широта 16.65 долгота -14.96 высота над уровнем моря 7 м.

В архиве по умолчанию представлена погода в Podor за последнюю неделю. Архивные данные за месяц целиком и за предыдущие месяцы, начиная с января 2011 года, Вы можете получить, выбрав интересующий диапазон дат из раскрывающегося списка и нажав кнопку "Ввод!".

Внимание! Время в таблицах - всемирное. Для получения местного времени необходимо прибавить поправку, которая в Podor равна 0 ч.

Смотрите также архив погоды в соседних городах и на ближайших метеорологических станциях:

Погода в Rosso (Мавритания) (92 км)
Погода в Boutilimit (Мавритания) (102 км)
Погода в Linguere (Сенегал) (142 км)
Погода в Kaedi (Мавритания) (164 км)
Погода в Saint-Louis (Сенегал) (172 км)
Погода в Nouakchott (Мавритания) (192 км)
Погода в Matam (Сенегал) (214 км)
Погода в Diourbel (Сенегал) (261 км)
Погода в Kaolack (Сенегал) (304 км)
Погода в Kauur (Гамбия) (329 км)

Пояснения к столбцам:

Ветер - указаны скорость ветра в м/с - средняя за 10 мин, порывы в срок и между сроками (в фигурных скобках) и направление, откуда дует ветер: С - северный, СВ - северо-восточный, В - восточный, ЮВ - юго-восточный, Ю - южный, ЮЗ - юго-западный, З - западный, СЗ - северо-западный.
Видимость - горизонтальная дальность видимости в метрах или километрах. При видимости от 1 до 10 км при отсутствии осадков обычно наблюдается дымка, при ухудшении видимости до 1 км и менее - туман. В сухую погоду видимость может ухудшаться дымом, пылью или мглою.
Явления - указаны атмосферные явления, наблюдавшиеся в срок или в последний час перед сроком; фигурными скобками обозначены явления, наблюдавшиеся между сроками (за 1-3 часа до срока); квадратными скобками обозначены град или гололедные отложения с указанием их диаметра в мм.
Облачность - указаны через наклонную черту общая и нижняя облачность в баллах и высота нижней границы облаков в метрах; квадратными скобками обозначены формы облаков: Ci - перистые, Cs - перисто-слоистые, Cc - перисто-кучевые, Ac - высококучевые, As - высокослоистые, Sc - слоисто-кучевые, Ns - слоисто-дождевые, Cu - кучевые, Cb - кучево-дождевые. Подробнее классификацию облаков см. в Атласе облаков (PDF).
T - Температура воздуха - температура, измеренная на высоте 2 м над землей.
Td - Температура точки росы - температура, при понижении до которой содержащийся в воздухе водяной пар достигнет насыщения.
f - Относительная влажность воздуха - влажноcть воздуха, измеренная на высоте 2 м над землей.
Te - Эффективная температура - температура, которую ощущает одетый по сезону человек в тени. Характеристика душности погоды. При расчете учитывается влияние влажности воздуха и скорости ветра на теплоощущения человека.
Tes - Эффективная температура на солнце - температура, которую ощущает человек, с поправкой на солнечный нагрев. Характеристика знойности погоды. Зависит от высоты солнца над горизонтом, облачности и скорости ветра. Ночью, в пасмурную погоду, а также при ветре 12 м/с и более поправка равна нулю.
P - Атмосферное давление - приведенное к уровню моря атмосферное давление.
Po - Атмосферное давление - измеренное на уровне метеостанции атмосферное давление.
Tmin - Минимальная температура - минимум температуры воздуха на высоте 2 м над землей.
Tmax - Максимальная температура - максимум температуры воздуха на высоте 2 м над землей.
R - Количество осадков - Количество выпавших осадков за период времени, мм. При наведении курсора мыши на число - период времени, за который выпало указанное количество осадков.
R24 - Количество осадков - Количество выпавших осадков за 24 часа, мм.
S - Снежный покров - Высота снежного покрова, см. При наведении курсора мыши на число - состояние снежного покрова и степень покрытия местности в баллах.